Regional Weather Roundup
Issued by NWS

Home | Current Version | Previous Version | Text Only | Print | Product List | Glossary Off
Versions: 1 2 3 4 5 6 7 8 9 10 11 12 13 14 15 16 17 18 19 20 21 22 23 24 25 26 27 28 29 30 31 32 33 34 35 36 37 38 39 40 41 42 43 44 45 46 47 48 49 50

000
ASUS43 KTOP 061008
RWRKS

WEATHER ROUNDUP FOR KANSAS
NATIONAL WEATHER SERVICE GOODLAND KS
500 AM CDT WED MAY 06 2015

NOTE:  "FAIR" INDICATES FEW OR NO CLOUDS BELOW 12,000 FEET WITH NO
SIGNIFICANT WEATHER AND/OR OBSTRUCTIONS TO VISIBILITY.

KSZ001>006-013>018-027>032-041>047-061100-
NORTHWEST KANSAS

CITY           SKY/WX    TMP DP  RH WIND       PRES   REMARKS
GOODLAND       CLOUDY    51  50  96 S15       29.72F
HAYS           CLOUDY    61  55  82 S15       29.76S
HILL CITY      CLOUDY    62  59  90 SE14G24   29.74F
RUSSELL        CLOUDY    62  60  93 SE18      29.75S
$$

KSZ061>065-074>080-084>089-061100-
SOUTHWEST KANSAS

CITY           SKY/WX    TMP DP  RH WIND       PRES   REMARKS
DODGE CITY     MOCLDY    55  52  89 S12       29.77S
ELKHART          N/A     48  43  83 S9          N/A
GARDEN CITY    MOCLDY    51  50  96 SE12      29.72F
GREAT BEND     CLOUDY    63  57  82 S17       29.77S
LIBERAL        CLEAR     52  46  82 SE9       29.75S
PRATT          CLOUDY    57  55  94 S9        29.80F
$$

KSZ066>073-081>083-090>101-061100-
SOUTHEAST KANSAS

CITY           SKY/WX    TMP DP  RH WIND       PRES   REMARKS
CHANUTE        LGT RAIN  64  61  90 S24G30    29.93R
COFFEYVILLE    LGT RAIN  64  62  93 S17       29.94F
HUTCHINSON     LGT RAIN  62  58  86 S12       29.81R
MEDICINE LODGE   N/A     60  60 100 S9G18     29.81S
NEWTON         CLOUDY    61  55  82 S15G22    29.84R
PARSONS        LGT RAIN  64  62  93 S9        29.95S
WICHITA INTL   LGT RAIN  61  58  90 S15       29.83R
WICHITA JABRA  LGT RAIN  60  60 100 S14         N/A
WICHITA MCCONL CLOUDY    61  59  94 SE15      29.85R
WINFIELD       CLOUDY    60  59  96 SE16G24   29.88R
$$

KSZ007>012-019>026-033>040-048>060-102>105-061100-
NORTHEAST KANSAS

CITY           SKY/WX    TMP DP  RH WIND       PRES   REMARKS
CONCORDIA      LGT RAIN  61  59  93 SE13      29.79F
EMPORIA        LGT RAIN  62  60  93 SE24G38   29.85F
LAWRENCE       CLOUDY    66  57  72 SE13      29.90F
MANHATTAN      LGT RAIN  63  61  93 S20       29.82F
MARYSVILLE     LGT RAIN  63  61  94 SE16      29.83F
OLATHE IND     LGT RAIN  66  56  70 SE14      29.94S
OLATHE EXE     CLOUDY    68  55  63 S15       29.93F
SALINA         LGT RAIN  62  59  90 SE12      29.80F
TOPEKA BILLARD LGT RAIN  64  60  87 SE14      29.88F
TOPEKA FORBES  LGT RAIN  65  59  81 SE17G24   29.87F
$$


USA.gov is the U.S. government's official web portal to all federal, state and local government web resources and services.